DW2973 Frederiksvaerk DK current weather conditions

sailwx.info

Wind from 064

Air temperature 15.0° C
Dewpoint 11.9° C

Last reported at 2019-Jun-19 02:30 UTC.
Time now 2019-Jun-19 03:15 UTC

Location: N 55°59' E 011°59'.
View on Google Maps.

See reports from other nearby stations

  
Tides and Currents Weather Stations Pressure Air Temp Water Temp Dewpoint Dewpoint Depression Visibility Wind Speed Wind Dir Waves Ship Positions
date/time (UTC)wind fromknots sea level pressurealtimeterstation pressurevisibilityair tempwater tempwave heightnotes
2019-Jun-19 02:30 064 15.0
2019-Jun-19 02:15 144 15.0
2019-Jun-19 02:00 180 15.6
2019-Jun-19 01:45 180 15.6
2019-Jun-19 01:30 180 16.1
2019-Jun-19 01:15 180 16.7
2019-Jun-19 01:00 180 16.7
2019-Jun-19 00:45 180 16.7
2019-Jun-19 00:30 180 17.2
2019-Jun-19 00:15 180 17.2
2019-Jun-19 00:00 180 16.7
2019-Jun-18 23:45 183 17.2
2019-Jun-18 23:30 184 17.2
2019-Jun-18 23:15 183 17.2
2019-Jun-18 23:00 186 16.7
2019-Jun-18 22:45 160 16.7
2019-Jun-18 22:32 136 16.7
2019-Jun-18 22:18 136 16.7
2019-Jun-18 22:02 136 16.7
2019-Jun-18 21:47 136 17.2
2019-Jun-18 21:31 136 17.2
2019-Jun-18 21:01 132 17.2
2019-Jun-18 20:46 134 17.2
2019-Jun-18 20:32 164 17.8
2019-Jun-18 20:16 103 17.8
2019-Jun-18 20:01 232 17.8
2019-Jun-18 19:46 232 18.3
2019-Jun-18 19:31 158 18.9
2019-Jun-18 19:17 140 0 20.0
2019-Jun-18 19:02 188 2 20.6
2019-Jun-18 18:46 126 21.1
2019-Jun-18 18:31 123 21.1
2019-Jun-18 18:16 121 21.7
2019-Jun-18 18:01 186 22.2
2019-Jun-18 17:47 178 22.8
2019-Jun-18 17:31 186 22.8
2019-Jun-18 17:15 161 23.3
2019-Jun-18 17:00 221 23.9
2019-Jun-18 16:45 188 24.4
2019-Jun-18 16:30 203 24.4
2019-Jun-18 16:16 179 24.4
2019-Jun-18 16:01 179 0 24.4
2019-Jun-18 15:46 219 25.6
2019-Jun-18 15:31 178 0 26.1
2019-Jun-18 15:17 221 0 26.1
2019-Jun-18 15:01 121 0 26.1
2019-Jun-18 14:46 221 26.1
2019-Jun-18 14:31 174 0 25.6
2019-Jun-18 14:16 084 0 25.6
2019-Jun-18 14:02 173 0 25.0
2019-Jun-18 13:46 152 0 25.6
2019-Jun-18 13:31 111 0 25.6
2019-Jun-18 13:16 094 0 25.0
2019-Jun-18 13:02 175 0 25.6
2019-Jun-18 12:46 203 0 25.0
2019-Jun-18 12:31 186 0 24.4
2019-Jun-18 12:15 098 0 24.4
2019-Jun-18 12:01 118 0 24.4
2019-Jun-18 11:45 145 0 23.9
2019-Jun-18 11:31 132 0 23.3
2019-Jun-18 11:15 218 0 23.9
2019-Jun-18 11:00 209 0 24.4
2019-Jun-18 10:45 086 0 23.3
2019-Jun-18 10:30 121 23.3
2019-Jun-18 10:15 159 0 22.8
2019-Jun-18 10:00 138 21.7
2019-Jun-18 09:45 138 0 21.7
2019-Jun-18 09:30 188 0 21.7
2019-Jun-18 09:15 181 0 21.7
2019-Jun-18 09:00 202 0 22.2
2019-Jun-18 08:45 292 0 22.2
2019-Jun-18 08:30 207 0 22.2
2019-Jun-18 08:15 126 22.2
2019-Jun-18 08:01 122 0 21.7
2019-Jun-18 07:46 173 0 21.1
2019-Jun-18 07:31 109 20.6
2019-Jun-18 07:16 168 0 20.6
2019-Jun-18 07:01 138 0 20.0
2019-Jun-18 06:46 095 0 20.0
2019-Jun-18 06:31 183 18.9
2019-Jun-18 06:16 230 18.9
2019-Jun-18 06:00 101 17.8
2019-Jun-18 05:46 151 17.8
2019-Jun-18 05:30 126 17.2
2019-Jun-18 05:16 175 17.2
2019-Jun-18 05:01 216 0 16.7
2019-Jun-18 04:46 184 16.1
2019-Jun-18 04:30 169 15.6
2019-Jun-18 04:15 109 15.6
2019-Jun-18 04:00 165 15.0
2019-Jun-18 03:45 178 15.0
2019-Jun-18 03:31 104 14.4
2019-Jun-18 03:16 120 14.4
2019-Jun-18 03:00 158 14.4
2019-Jun-18 02:45 188 14.4
2019-Jun-18 02:30 202 14.4
2019-Jun-18 02:15 163 14.4
2019-Jun-18 02:00 188 14.4
2019-Jun-18 01:45 184 14.4
2019-Jun-18 01:30 269 13.9
2019-Jun-18 01:15 269 13.9
2019-Jun-18 01:00 269 13.9
2019-Jun-18 00:45 269 13.9
2019-Jun-18 00:30 269 14.4
2019-Jun-18 00:15 269 14.4
2019-Jun-17 23:46 269 13.9
2019-Jun-17 23:31 268 13.9
2019-Jun-17 23:16 269 14.4
2019-Jun-17 23:01 269 14.4
2019-Jun-17 22:46 268 14.4
2019-Jun-17 22:31 268 14.4
2019-Jun-17 22:16 268 14.4
2019-Jun-17 22:02 268 15.0
2019-Jun-17 21:47 268 15.0
2019-Jun-17 21:31 269 15.0
2019-Jun-17 21:17 269 15.6
2019-Jun-17 21:01 269 15.6
2019-Jun-17 20:46 269 15.6
2019-Jun-17 20:31 268 16.1
2019-Jun-17 20:16 269 16.7
2019-Jun-17 20:01 268 17.2
2019-Jun-17 19:46 268 18.3
2019-Jun-17 19:31 269 19.4
2019-Jun-17 19:16 269 20.6
2019-Jun-17 19:02 269 21.1
2019-Jun-17 18:48 268 21.1
2019-Jun-17 18:32 269 21.7